[[{"header":{"parameterUnit":"m.s-1","parameterCategory":1,"la1":30.2991,"la2":30.254,"lo1":-89.0895,"lo2":-89.0444,"dy":0.0017,"dx":0.0017,"nx":28,"ny":28,"refTime":"2024-07-06T21:00:00:Z","depth":0,"parameterNumber":2,"parameterNumberName":"U-component_of_WINDS"},"data":[0,0,0,0,0,0,0,0,0,0,0,0,0,0,0,0,0,0,0,0,0,0,0,0,0,0,0,0,0,0,0,0,0,0,0,0,0,0,0,0,0,0,0,0,0,0,0,0,0,0,0,0,0,0,0,0,0,0,0.9687,0.9688,0,0.977,0.9771,0.9772,0.9788,0.9788,0.9787,0.9787,0.9872,0.9875,0.9878,0,0,0,0,0,0,0,0,0,0,0,0,0,0.9545,0.9548,0.9687,0.9688,0.9689,0.9769,0.9771,0.9772,0.9789,0.9788,0.9787,0.9786,0.9871,0.9875,0.9878,0,0,0,0,0,0,0,0,0,0,0,0,0,0.9615,0.9549,0.9687,0.9707,0.971,0.9769,0.9771,0.9772,0.9789,0.9788,0.9787,0.9786,0.987,0.9874,0.9879,0.9924,0,0,0.9892,0.9894,0,0,0,0,0,0,0,0,0.9611,0.962,0.9703,0.9706,0.9709,0.9768,0.9752,0.9823,0.9789,0.9759,0.9787,0.9785,0.9838,0.9845,0.9863,0.9928,0.9932,0.9892,0.9895,0.9897,0.9898,0,0,0,0,0,0,0,0.9606,0.9617,0.972,0.9704,0.9708,0.9712,0.9721,0.9766,0.9803,0.9761,0.9763,0.9772,0.984,0.9859,0.9865,0.9933,0.9892,0.9896,0.9898,0.99,1.0039,1.004,0,0,0,0,0,0,0.9598,0.9613,0.9717,0.9722,0.9657,0.9716,0.9726,0.975,0.9802,0.981,0.9773,0.9773,0.9852,0.986,0.9868,0.9924,0.9896,0.9901,0.9903,1.0038,1.0039,1.004,0,0,0,0,0,0,0.9595,0.9607,0.9714,0.9668,0.9682,0.9719,0.9746,0.9752,0.9771,0.9811,0.9818,0.9785,0.9851,0.9862,0.991,0.9927,0.9902,0.9906,1.0037,1.0038,1.004,1.0036,0,0,0,0,0,0,0.959,0.9606,0.9623,0.9668,0.9684,0.9754,0.9747,0.9754,0.9778,0.9778,0.9825,0.9831,0.9851,0.9903,0.9914,0.9933,0.991,1.0035,1.0037,1.0039,1.0035,1.0038,1.004,0,0,0,0,0,0.9585,0.9619,0.9624,0.9636,0.9707,0.9755,0.9764,0.9786,0.9779,0.9797,0.9823,0.983,0.9924,0.9908,0.992,0.994,1.0034,1.0037,1.0039,1.0034,1.0037,1.004,0,0,0,0,0,0,0.9576,0.9626,0.9631,0.9681,0.9713,0.9758,0.9781,0.9789,0.9825,0.9824,0.985,0.986,0.9906,0.9928,0.991,0.9987,0.9979,0.9984,0.997,0.9974,0.9976,0.997,0.9913,0,0,0,0,0,0.958,0.9614,0.9656,0.9696,0.9712,0.9743,0.9765,0.9779,0.9814,0.9828,0.9858,0.9892,0.9929,0.9953,0.9989,1.0039,1.0049,1.0059,1.0061,1.0063,1.0067,1.0094,1.0099,1.0049,1.0049,1.0049,0,0,0.9588,0.9619,0.9639,0.9695,0.9721,0.9757,0.9755,0.9793,0.9819,0.9834,0.9881,0.9903,0.9943,0.9992,1.0015,1.0012,1.0083,1.0066,1.0067,1.007,1.0097,1.0102,1.0106,1.005,1.005,1.005,0,0,0.962,0.9648,0.9683,0.971,0.975,0.9771,0.978,0.9823,0.9838,0.9885,0.9897,0.9929,0.9993,1.002,1.0043,1.0085,1.0092,1.0096,1.0109,1.0135,1.0139,1.0142,1.0157,1.0162,1.01,1.01,1.01,0,0.9625,0.9678,0.9701,0.9737,0.9761,0.9776,0.9812,0.9837,0.9888,0.9904,0.99,0.9979,1.0007,1.0062,1.0072,1.009,1.0101,1.0091,1.0136,1.014,1.0144,1.0158,1.0163,1.01,1.01,1.01,1.01,0,0.9682,0.9718,0.9743,0.979,0.9817,0.9853,0.9881,0.9905,0.9917,0.9938,0.9986,1.002,1.0063,1.0077,1.0089,1.0134,1.013,1.0131,1.0123,1.0149,1.0162,1.0168,1.01,1.01,1.01,1.01,0,0,0.9711,0.9769,0.9778,0.9799,0.9845,0.9874,0.9911,0.9952,0.9972,1.0007,1.0038,1.0091,1.0092,1.0117,1.0133,1.0156,1.0186,1.0154,1.0155,1.0158,1.0237,1.0235,1.0241,1.0192,1.0193,1.0194,1.0233,0,0.9748,0.9813,0.9834,0.9889,0.9923,0.9938,0.997,1.0001,1.0022,1.0054,1.0078,1.0115,1.0113,1.0128,1.0152,1.0178,1.0202,1.0175,1.0221,1.0223,1.021,1.0249,1.0247,1.0283,1.0239,1.024,1.024,0,0.98,0.9834,0.9892,0.9933,0.9948,0.9976,1.0016,1.0046,1.0082,1.0096,1.0124,1.0137,1.0177,1.0167,1.0221,1.0202,1.0222,1.0238,1.024,1.0244,1.0232,1.0254,1.0295,1.03,1.0249,1.0248,1.0248,0,0.9814,0.9875,0.9917,0.9935,0.9984,1.0003,1.0024,1.006,1.0083,1.0118,1.0133,1.0173,1.0194,1.0224,1.0248,1.0239,1.03,1.0292,1.0312,1.0312,1.0324,1.0323,1.0368,1.0338,1.0338,1.0338,1.0338,0,0.9853,0.9888,0.9924,0.995,0.9989,1.0013,1.0051,1.0074,1.0105,1.0135,1.0151,1.0179,1.0209,1.0242,1.0261,1.0303,1.0313,1.0325,1.0329,1.0323,1.0321,1.0336,1.0334,1.0339,1.0339,1.0339,1.0339,0,0.9875,0.9901,0.9948,0.9989,1.0001,1.0028,1.0064,1.009,1.0111,1.015,1.016,1.0194,1.0233,1.026,1.031,1.0323,1.0368,1.0373,1.0356,1.0358,1.0376,1.0374,1.0432,1.0441,1.0405,1.0405,1.0406,0,0.9898,0.9925,0.9969,0.999,1.0011,1.0046,1.0069,1.0094,1.0118,1.0161,1.0182,1.0222,1.0255,1.0317,1.0346,1.0385,1.039,1.0408,1.0396,1.0389,1.039,1.0387,1.039,1.0409,1.041,1.041,1.041,0,0.9935,0.9946,0.998,1.0017,1.0045,1.0076,1.0107,1.0124,1.0154,1.0181,1.0221,1.0246,1.0297,1.0337,1.0378,1.04,1.041,1.0414,1.042,1.0414,1.0403,1.0408,1.036,1.0412,1.0412,1.0412,1.0412,1.0412,0.9958,0.9982,1.0017,1.0053,1.0079,1.0108,1.0134,1.0158,1.0192,1.0235,1.0247,1.0289,1.0324,1.038,1.0403,1.0436,1.0435,1.0444,1.0447,1.0449,1.0448,1.0398,1.0444,1.0444,1.0444,1.0444,1.0444,0,0.9996,1.0018,1.0052,1.0094,1.0123,1.0129,1.0164,1.0188,1.0224,1.0255,1.0287,1.0333,1.0371,1.0403,1.0443,1.0463,1.0469,1.0473,1.0471,1.0476,1.0447,1.0437,1.0467,1.0467,1.0467,1.0467,1.0467,1.0467,1.0018,1.0059,1.0075,1.0129,1.0152,1.0192,1.0211,1.0237,1.0263,1.0312,1.0344,1.0364,1.0396,1.0438,1.0474,1.0482,1.0496,1.0499,1.0508,1.0481,1.0478,1.0476,1.0466,1.0502,1.0502,1.0534,1.0535,1.0535]},{"header":{"parameterUnit":"m.s-1","parameterCategory":1,"la1":30.2991,"la2":30.254,"lo1":-89.0895,"lo2":-89.0444,"dy":0.0017,"dx":0.0017,"nx":28,"ny":28,"refTime":"2024-07-06T21:00:00:Z","depth":0,"parameterNumber":3,"parameterNumberName":"V-component_of_WINDS"},"data":[0,0,0,0,0,0,0,0,0,0,0,0,0,0,0,0,0,0,0,0,0,0,0,0,0,0,0,0,0,0,0,0,0,0,0,0,0,0,0,0,0,0,0,0,0,0,0,0,0,0,0,0,0,0,0,0,0,0,1.9555,1.9555,0,1.9577,1.9578,1.9578,1.9548,1.9546,1.9545,1.9544,1.9565,1.9567,1.9568,0,0,0,0,0,0,0,0,0,0,0,0,0,1.9485,1.9486,1.9555,1.9556,1.9556,1.9577,1.9578,1.9578,1.9548,1.9546,1.9545,1.9544,1.9565,1.9566,1.9568,0,0,0,0,0,0,0,0,0,0,0,0,0,1.9512,1.9486,1.9555,1.9543,1.9543,1.9577,1.9578,1.9578,1.9548,1.9546,1.9545,1.9543,1.9564,1.9566,1.9569,1.9615,0,0,1.9576,1.9577,0,0,0,0,0,0,0,0,1.951,1.9514,1.9545,1.9544,1.9543,1.9558,1.956,1.9591,1.9548,1.9546,1.9544,1.9542,1.9564,1.9566,1.9574,1.9616,1.9617,1.9576,1.9577,1.9578,1.9579,0,0,0,0,0,0,0,1.9508,1.9513,1.9564,1.9545,1.9544,1.9536,1.9538,1.9566,1.9564,1.9546,1.9544,1.9547,1.9563,1.9572,1.9574,1.9618,1.9576,1.9578,1.9579,1.958,1.9699,1.9701,0,0,0,0,0,0,1.9508,1.9512,1.9563,1.9565,1.9523,1.9539,1.9541,1.9555,1.9563,1.9563,1.9548,1.9545,1.9568,1.9571,1.9575,1.963,1.9578,1.9581,1.9582,1.9698,1.97,1.9702,0,0,0,0,0,0,1.9507,1.9513,1.9562,1.9538,1.9543,1.9542,1.9558,1.9556,1.9565,1.9565,1.9564,1.9558,1.9567,1.9571,1.9606,1.963,1.9582,1.9584,1.9695,1.9698,1.9701,1.9741,0,0,0,0,0,0,1.9505,1.9513,1.9531,1.9538,1.9545,1.9594,1.9559,1.9558,1.9569,1.9566,1.9574,1.9573,1.9566,1.9602,1.9608,1.9633,1.9586,1.9693,1.9697,1.97,1.9738,1.9745,1.9751,0,0,0,0,0,1.9503,1.9541,1.9532,1.9539,1.9568,1.9595,1.9599,1.9591,1.9571,1.9589,1.9589,1.9573,1.9627,1.9606,1.9612,1.9638,1.9692,1.9696,1.97,1.9735,1.9744,1.9751,0,0,0,0,0,0,1.9536,1.9542,1.9532,1.9574,1.9585,1.959,1.9613,1.96,1.9616,1.9612,1.96,1.9602,1.9639,1.9642,1.9619,1.9684,1.9656,1.9661,1.968,1.9689,1.9696,1.9694,1.9587,0,0,0,0,0,1.9549,1.9571,1.9575,1.9612,1.9617,1.9614,1.9626,1.9619,1.9628,1.9632,1.9635,1.9645,1.9664,1.9676,1.9694,1.9738,1.9739,1.9759,1.9765,1.9771,1.9776,1.9799,1.9808,1.9715,1.9715,1.9714,0,0,1.9575,1.9581,1.9595,1.9619,1.9626,1.9649,1.9618,1.9643,1.966,1.9636,1.9669,1.9671,1.9681,1.972,1.9738,1.9724,1.9802,1.9776,1.978,1.9782,1.9804,1.9813,1.9821,1.9717,1.9717,1.9716,0,0,1.9633,1.964,1.9672,1.968,1.9691,1.9689,1.9696,1.9704,1.9704,1.9737,1.9719,1.9739,1.9772,1.9779,1.9788,1.9849,1.9835,1.9855,1.989,1.9913,1.9921,1.9927,1.9949,1.9957,1.986,1.986,1.986,0,1.9664,1.9698,1.9689,1.9716,1.9727,1.9707,1.9738,1.9746,1.9762,1.977,1.9754,1.9795,1.98,1.9841,1.9856,1.9864,1.9872,1.9854,1.9921,1.9927,1.9933,1.9954,1.9962,1.9862,1.9862,1.9862,1.9862,0,1.9735,1.9759,1.9783,1.98,1.9814,1.9843,1.9838,1.9852,1.9844,1.9843,1.9876,1.9881,1.99,1.9909,1.9901,1.9948,1.994,1.9922,1.9894,1.9944,1.9964,1.9972,1.9866,1.9865,1.9864,1.9864,0,0,1.9816,1.9828,1.9837,1.9844,1.9855,1.9873,1.9901,1.992,1.9932,1.9944,1.9967,1.9995,1.9979,1.9989,1.9981,2.0001,2.005,1.9982,1.9982,1.9994,2.0103,2.0116,2.0125,2.004,2.0042,2.0043,2.0102,0,1.9875,1.9924,1.9917,1.9964,1.9986,1.9967,1.9991,2.0,2.0,2.0018,2.0017,2.0038,2.0015,2.0021,2.004,2.004,2.0071,2.0035,2.0061,2.0062,2.0059,2.0135,2.0149,2.0205,2.011,2.0111,2.0112,0,1.995,1.9966,2.0015,2.0023,2.0032,2.0054,2.007,2.0088,2.0097,2.0095,2.0106,2.0095,2.0122,2.0093,2.0131,2.0106,2.0116,2.0118,2.0119,2.0122,2.009,2.014,2.0223,2.0231,2.0124,2.0123,2.0122,0,2.0004,2.0037,2.0071,2.0078,2.0088,2.0104,2.0108,2.0116,2.0128,2.0142,2.0149,2.0166,2.0175,2.0188,2.0181,2.0161,2.0219,2.019,2.0218,2.0219,2.0232,2.0231,2.0318,2.0238,2.0238,2.0238,2.0237,0,2.0071,2.0102,2.0096,2.0117,2.0151,2.0141,2.0175,2.0177,2.0185,2.0205,2.0189,2.0209,2.0199,2.0217,2.0212,2.0243,2.0248,2.0247,2.0245,2.0248,2.0249,2.0255,2.0251,2.024,2.0239,2.0239,2.0239,0,2.0137,2.0134,2.017,2.0176,2.0179,2.0204,2.0208,2.0228,2.0226,2.0252,2.0258,2.0255,2.0276,2.0271,2.0294,2.029,2.033,2.0323,2.0327,2.0326,2.0354,2.0352,2.0448,2.046,2.0372,2.0373,2.0374,0,2.018,2.0204,2.0213,2.0226,2.0232,2.0253,2.0265,2.0256,2.0269,2.0282,2.03,2.0319,2.0335,2.0369,2.0369,2.0386,2.038,2.0412,2.0382,2.0385,2.038,2.0379,2.0382,2.0418,2.0419,2.042,2.0421,0,2.0257,2.0254,2.0272,2.029,2.0305,2.0318,2.033,2.0341,2.0334,2.0349,2.0371,2.0383,2.0406,2.0426,2.0442,2.0445,2.0432,2.043,2.0438,2.0442,2.0443,2.0443,2.0344,2.0428,2.0427,2.0427,2.0426,2.0426,2.0313,2.0333,2.0342,2.0363,2.0371,2.0383,2.0401,2.0402,2.0421,2.0439,2.0433,2.0458,2.0466,2.0486,2.0492,2.0511,2.0499,2.0509,2.0512,2.0515,2.0519,2.044,2.0514,2.0513,2.0513,2.0513,2.0513,0,2.0388,2.0394,2.0413,2.043,2.0447,2.0433,2.0445,2.046,2.0482,2.0491,2.0507,2.0532,2.0551,2.0552,2.057,2.0585,2.0579,2.059,2.0589,2.059,2.0529,2.0521,2.0594,2.0594,2.0594,2.0594,2.0594,2.0594,2.043,2.0463,2.0462,2.0499,2.0504,2.0528,2.0537,2.0547,2.0554,2.0583,2.0599,2.06,2.0606,2.0624,2.0641,2.0641,2.0648,2.0662,2.0659,2.0602,2.0594,2.0586,2.0579,2.0663,2.0663,2.0719,2.0719,2.0719]}]]